Location: Cisewo
(53.3833°N, 14.9000°E)
Time: 10:50:09
(UTC+00:00)

Meteor 1-27 - Pass Details

Date: 18 April 2021
Orbit: 838 x 892 km, 81.2° (Epoch: 14 May)

Event Time Altitude Azimuth Distance (km) Brightness Sun altitude
Exits shadow 20:47:47 24° 190° (S) 1,731 5.4 -19.6°
Maximum altitude 20:51:24 88° 102° (ESE) 890 4.2 -19.9°
Drops below altitude 10° 20:57:16 10° 14° (NNE) 2,566 7.3 -20.4°
Sets 20:59:45 0° 14° (NNE) 3,514 8.1 -20.6°
